This demonstration page uses our WeatherBlox Daily Observations layout. Learn more.

Left ArrowRight Arrow

39.08367, -84.50855

Hourly Observations for June 18, 2021

Temp ( °F °C ) Dew Point ( °F °C ) Humidity (%) Winds ( mph kmh ) Pressure ( in mb ) Visibility ( mi km ) Precip ( " mm )
12:53 am 00:53 Clear 65 18.3 61 16.1 87 87 N N/A 30.00 1016 10 16 N/A
1:53 am 01:53 Clear 64 17.8 61 16.1 90 90 N N/A 29.99 1016 10 16 N/A
2:53 am 02:53 Clear 63 17.2 61 16.1 93 93 N N/A 29.99 1016 10 16 N/A
3:53 am 03:53 Clear 63 17.2 60 15.6 90 90 N N/A 29.96 1015 10 16 N/A
4:53 am 04:53 Clear 62 16.7 59 15 90 90 N N/A 29.95 1014 10 16 N/A
5:53 am 05:53 Clear 63 17.2 58 14.4 84 84 SSW 7 11 29.94 1014 10 16 N/A
6:53 am 06:53 Sunny 63 17.2 59 15 87 87 N N/A 29.96 1015 10 16 N/A
7:53 am 07:53 Sunny 68 20 61 16.1 78 78 WSW 5 7 29.96 1015 10 16 N/A
8:53 am 08:53 Sunny 71 21.7 61 16.1 71 71 SSW 7 11 29.96 1014 10 16 N/A
9:53 am 09:53 Mostly Sunny 76 24.4 64 17.8 67 67 S 9 15 29.96 1015 10 16 N/A
10:53 am 10:53 Mostly Sunny 77 25 67 19.4 71 71 SSE 3 6 29.96 1015 10 16 N/A
11:09 am 11:09 Partly Cloudy with Thunderstorms 76 24.4 66 18.9 72 72 S 5 7 29.96 1015 10 16 N/A
11:53 am 11:53 Mostly Cloudy with Thunderstorms 71 21.7 67 19.4 87 87 E 9 15 29.98 1015 8 13 0.03 0.76
12:03 pm 12:03 Mostly Cloudy with Nearby Thunderstorms 71 21.7 67 19.4 87 87 VRB 3 6 29.99 1015 10 16 0.00 0.00
12:27 pm 12:27 Mostly Cloudy 71 21.7 67 19.4 87 87 SSW 5 7 29.97 1015 8 13 0.00 0.00
12:53 pm 12:53 Partly Cloudy 73 22.8 68 20 84 84 SE 14 22 29.93 1014 10 16 0.00 0.00
1:53 pm 13:53 Sunny 78 25.6 71 21.7 79 79 S 14 22 29.91 1013 10 16 N/A
2:53 pm 14:53 Sunny 82 27.8 71 21.7 69 69 S 13 20 29.91 1013 10 16 N/A
3:53 pm 15:53 Mostly Sunny 87 30.6 74 23.3 65 65 S 15 24 29.85 1011 10 16 N/A
4:53 pm 16:53 Mostly Sunny 88 31.1 73 22.8 61 61 SSW 22 35 29.83 1010 10 16 N/A
5:53 pm 17:53 Partly Cloudy 88 31.1 73 22.8 61 61 SSW 17 28 29.80 1009 10 16 N/A
6:53 pm 18:53 Mostly Cloudy 86 30 71 21.7 61 61 SW 12 19 29.83 1010 10 16 N/A
7:53 pm 19:53 Sunny 84 28.9 71 21.7 65 65 SSW 14 22 29.81 1010 10 16 N/A
8:53 pm 20:53 Mostly Cloudy with Strong Thunderstorms 83 28.3 70 21.1 65 65 S 15 24 29.79 1009 4 6 0.00 0.00
9:53 pm 21:53 Cloudy with Strong Thunderstorms 70 21.1 66 18.9 87 87 ENE 18 30 29.97 1015 4 6 0.08 2.03
10:00 pm 22:00 Cloudy with Strong Thunderstorms 68 20 65 18.3 90 90 E 13 20 29.94 1014 3 5 0.04 1.02
10:53 pm 22:53 Cloudy with Strong Thunderstorms 68 20 65 18.3 90 90 N N/A 29.94 1014 7 11 0.07 1.78
11:01 pm 23:01 Partly Cloudy 68 20 65 18.3 90 90 SW 7 11 29.96 1015 10 16 0.00 0.00
11:18 pm 23:18 Mostly Cloudy with Nearby Thunderstorms 68 20 65 18.3 90 90 S 5 7 29.96 1015 10 16 0.00 0.00
11:44 pm 23:44 Cloudy 67 19.4 65 18.3 93 93 S 13 20 29.93 1014 10 16 0.01 0.25
11:50 pm 23:50 Mostly Cloudy with Nearby Thunderstorms 66 19 64 18 94 94 S 13 20 29.93 1014 10 16 0.01 0.25
11:53 pm 23:53 Mostly Cloudy with Nearby Thunderstorms 67 19.4 65 18.3 93 93 S 10 17 29.94 1014 10 16 0.01 0.25

Powered by AerisWeather